When you browse on this site, cookies collect data to enhance your experience and personalize the content and advertising you see.
Visit our Privacy Policy to learn more. By continuing to use the site, you agree to this use of cookies and data.
  • In Austria
  • List of Countries
  • For 7 days
  • Water Temperature
  • Weather Map
  • News
  • Weather Widgets
  • user-avatar
    Login

    Hourly Weather Hlybochok

    Today, 23 September, Monday

    Time Temperature Precipitation Wind Pressure Humidity
    00:00 +14°C° 0 mm 2 mps 739 mmHg 77%
    01:00 +14°C° 0 mm 1 mps 739 mmHg 79%
    02:00 +12°C° 0 mm 1 mps 738 mmHg 72%
    03:00 +11°C° 0 mm 1 mps 738 mmHg 79%
    04:00 +9°C° 0 mm 2 mps 738 mmHg 86%
    05:00 +9°C° 0 mm 2 mps 738 mmHg 90%
    06:00 +8°C° 0 mm 2 mps 738 mmHg 91%
    07:00 +8°C° 0 mm 2 mps 738 mmHg 93%
    08:00 +11°C° 0 mm 1 mps 738 mmHg 90%
    09:00 +13°C° 0 mm 2 mps 739 mmHg 82%
    10:00 +15°C° 0 mm 2 mps 739 mmHg 76%
    11:00 +18°C° 0 mm 1 mps 739 mmHg 76%
    12:00 +19°C° 0 mm 1 mps 739 mmHg 71%
    13:00 +20°C° 0 mm 1 mps 739 mmHg 68%
    14:00 +21°C° 0 mm 1 mps 739 mmHg 65%
    15:00 +20°C° 0 mm 2 mps 738 mmHg 64%
    16:00 +20°C° 0 mm 2 mps 738 mmHg 67%
    17:00 +20°C° 0 mm 2 mps 738 mmHg 72%
    18:00 +18°C° 0 mm 3 mps 738 mmHg 81%
    19:00 +14°C° 0 mm 6 mps 738 mmHg 91%
    20:00 +13°C° 0 mm 5 mps 739 mmHg 94%
    21:00 +12°C° 0 mm 5 mps 739 mmHg 95%
    22:00 +10°C° 0 mm 5 mps 739 mmHg 95%
    23:00 +11°C° 0 mm 4 mps 739 mmHg 95%

    Tomorrow, 24 September, Tuesday

    Time Temperature Precipitation Wind Pressure Humidity
    00:00 +11°C° 0 mm 4 mps 739 mmHg 95%
    01:00 +11°C° 0 mm 4 mps 739 mmHg 94%
    02:00 +10°C° 0 mm 4 mps 739 mmHg 93%
    03:00 +10°C° 0 mm 4 mps 740 mmHg 94%
    04:00 +10°C° 0 mm 3 mps 739 mmHg 94%
    05:00 +10°C° 0 mm 3 mps 739 mmHg 95%
    06:00 +10°C° 0 mm 3 mps 739 mmHg 95%
    07:00 +10°C° 0 mm 3 mps 740 mmHg 94%
    08:00 +10°C° 0 mm 4 mps 740 mmHg 92%
    09:00 +11°C° 0 mm 4 mps 740 mmHg 89%
    10:00 +11°C° 0 mm 3 mps 740 mmHg 88%
    11:00 +12°C° 0 mm 3 mps 740 mmHg 87%
    12:00 +12°C° 0 mm 3 mps 740 mmHg 85%
    13:00 +12°C° 0 mm 4 mps 740 mmHg 87%
    14:00 +12°C° 0 mm 4 mps 740 mmHg 89%
    15:00 +12°C° 0 mm 4 mps 739 mmHg 88%
    16:00 +13°C° 0 mm 3 mps 739 mmHg 88%
    17:00 +13°C° 0 mm 3 mps 739 mmHg 89%
    18:00 +13°C° 0 mm 3 mps 739 mmHg 93%
    19:00 +12°C° 0 mm 3 mps 739 mmHg 96%
    20:00 +12°C° 0 mm 3 mps 739 mmHg 97%
    21:00 +13°C° 0 mm 2 mps 739 mmHg 98%
    22:00 +13°C° 0 mm 2 mps 739 mmHg 98%
    23:00 +13°C° 0 mm 2 mps 739 mmHg 98%

    Day after tomorrow, 25 September, Wednesday

    Time Temperature Precipitation Wind Pressure Humidity
    00:00 +13°C° 0 mm 2 mps 739 mmHg 98%
    01:00 +13°C° 0 mm 2 mps 739 mmHg 99%
    02:00 +13°C° 0 mm 2 mps 739 mmHg 98%
    03:00 +12°C° 0 mm 3 mps 738 mmHg 98%
    04:00 +11°C° 0 mm 4 mps 738 mmHg 98%
    05:00 +11°C° 0 mm 4 mps 738 mmHg 99%
    06:00 +10°C° 0 mm 5 mps 738 mmHg 100%
    07:00 +10°C° 0 mm 5 mps 738 mmHg 99%
    08:00 +10°C° 0 mm 5 mps 738 mmHg 98%
    09:00 +10°C° 0 mm 5 mps 738 mmHg 96%
    10:00 +13°C° 0 mm 5 mps 738 mmHg 95%
    11:00 +14°C° 0 mm 5 mps 738 mmHg 92%
    12:00 +16°C° 0 mm 5 mps 738 mmHg 87%
    13:00 +17°C° 0 mm 6 mps 737 mmHg 87%
    14:00 +19°C° 0 mm 6 mps 737 mmHg 86%
    15:00 +19°C° 0 mm 5 mps 737 mmHg 85%
    16:00 +19°C° 0 mm 5 mps 736 mmHg 86%
    17:00 +15°C° 2.1 mm 4 mps 736 mmHg 86%
    18:00 +15°C° 1.5 mm 2 mps 736 mmHg 98%
    19:00 +14°C° 0.5 mm 3 mps 737 mmHg 100%
    20:00 +14°C° 0.1 mm 3 mps 736 mmHg 99%
    21:00 +15°C° 0.1 mm 4 mps 736 mmHg 100%
    22:00 +14°C° 0 mm 4 mps 736 mmHg 100%
    23:00 +14°C° 0.3 mm 3 mps 735 mmHg 100%

    26 September, Thursday

    Time Temperature Precipitation Wind Pressure Humidity
    00:00 +15°C° 0 mm 2 mps 735 mmHg 100%
    01:00 +15°C° 0 mm 2 mps 735 mmHg 100%
    02:00 +15°C° 0 mm 1 mps 735 mmHg 100%
    03:00 +14°C° 0 mm 1 mps 735 mmHg 100%
    04:00 +13°C° 0 mm 0 mps 735 mmHg 100%
    05:00 +13°C° 0 mm 0 mps 735 mmHg 100%
    06:00 +13°C° 0 mm 0 mps 735 mmHg 100%
    07:00 +14°C° 0 mm 1 mps 735 mmHg 100%
    08:00 +13°C° 0 mm 0 mps 735 mmHg 100%
    09:00 +15°C° 0.1 mm 1 mps 736 mmHg 99%
    10:00 +16°C° 0.2 mm 1 mps 736 mmHg 97%
    11:00 +16°C° 0.9 mm 3 mps 736 mmHg 98%
    12:00 +15°C° 3.4 mm 4 mps 736 mmHg 98%
    13:00 +17°C° 0.6 mm 3 mps 736 mmHg 96%
    14:00 +17°C° 0 mm 3 mps 735 mmHg 95%
    15:00 +17°C° 0 mm 2 mps 735 mmHg 91%
    16:00 +16°C° 0 mm 0 mps 735 mmHg 91%
    17:00 +16°C° 0 mm 0 mps 735 mmHg 94%
    18:00 +16°C° 0.2 mm 1 mps 735 mmHg 96%
    19:00 +15°C° 1 mm 1 mps 735 mmHg 100%
    20:00 +14°C° 2.5 mm 4 mps 735 mmHg 99%
    21:00 +13°C° 2.6 mm 5 mps 735 mmHg 100%
    22:00 +13°C° 2 mm 4 mps 735 mmHg 100%
    23:00 +13°C° 1.8 mm 3 mps 735 mmHg 100%

    27 September, Friday

    Time Temperature Precipitation Wind Pressure Humidity
    00:00 +13°C° 1 mm 4 mps 734 mmHg 100%
    01:00 +13°C° 0.5 mm 3 mps 734 mmHg 100%
    02:00 +13°C° 0.4 mm 3 mps 734 mmHg 100%

    28 September, Saturday

    Time Temperature Precipitation Wind Pressure Humidity
    Show more